When you browse on this site, cookies collect data to enhance your experience and personalize the content and advertising you see.
Visit our Privacy Policy to learn more. By continuing to use the site, you agree to this use of cookies and data.
  • In Hungary
  • List of Countries
  • For 7 days
  • Water Temperature
  • Weather Map
  • News
  • Weather Widgets
  • user-avatar
    Login

    Hourly Weather Bobov

    Today, 22 October, Tuesday

    Time Temperature Precipitation Wind Pressure Humidity
    00:00 +8°C° 0 mm 5 mps 759 mmHg 71%
    01:00 +8°C° 0 mm 6 mps 758 mmHg 72%
    02:00 +8°C° 0 mm 6 mps 758 mmHg 72%
    03:00 +8°C° 0 mm 6 mps 758 mmHg 71%
    04:00 +8°C° 0 mm 6 mps 758 mmHg 71%
    05:00 +8°C° 0 mm 6 mps 757 mmHg 72%
    06:00 +8°C° 0 mm 6 mps 757 mmHg 72%
    07:00 +9°C° 0 mm 6 mps 757 mmHg 71%
    08:00 +9°C° 0 mm 6 mps 757 mmHg 69%
    09:00 +10°C° 0 mm 6 mps 756 mmHg 69%
    10:00 +10°C° 0.2 mm 5 mps 756 mmHg 71%
    11:00 +10°C° 0.2 mm 5 mps 756 mmHg 74%
    12:00 +10°C° 0.2 mm 5 mps 756 mmHg 76%
    13:00 +11°C° 0.3 mm 4 mps 756 mmHg 79%
    14:00 +11°C° 0.3 mm 4 mps 756 mmHg 82%
    15:00 +11°C° 0.3 mm 4 mps 756 mmHg 86%
    16:00 +10°C° 0.1 mm 3 mps 756 mmHg 88%
    17:00 +10°C° 0.1 mm 3 mps 756 mmHg 90%
    18:00 +10°C° 0.1 mm 2 mps 756 mmHg 93%
    19:00 +10°C° 0 mm 2 mps 756 mmHg 93%
    20:00 +11°C° 0 mm 1 mps 756 mmHg 93%
    21:00 +11°C° 0 mm 1 mps 756 mmHg 93%
    22:00 +10°C° 0 mm 1 mps 756 mmHg 94%
    23:00 +10°C° 0 mm 1 mps 756 mmHg 94%

    Tomorrow, 23 October, Wednesday

    Time Temperature Precipitation Wind Pressure Humidity
    00:00 +9°C° 0 mm 0 mps 756 mmHg 94%
    01:00 +8°C° 0 mm 0 mps 757 mmHg 95%
    02:00 +8°C° 0 mm 0 mps 757 mmHg 95%
    03:00 +8°C° 0 mm 0 mps 757 mmHg 95%
    04:00 +8°C° 0 mm 0 mps 757 mmHg 96%
    05:00 +8°C° 0 mm 0 mps 756 mmHg 96%
    06:00 +8°C° 0 mm 0 mps 756 mmHg 96%
    07:00 +10°C° 0 mm 1 mps 757 mmHg 93%
    08:00 +11°C° 0 mm 1 mps 757 mmHg 89%
    09:00 +10°C° 0 mm 2 mps 757 mmHg 86%
    10:00 +13°C° 0 mm 2 mps 757 mmHg 77%
    11:00 +13°C° 0 mm 3 mps 756 mmHg 68%
    12:00 +14°C° 0 mm 3 mps 756 mmHg 58%
    13:00 +14°C° 0 mm 4 mps 756 mmHg 56%
    14:00 +14°C° 0 mm 4 mps 755 mmHg 53%
    15:00 +14°C° 0 mm 4 mps 755 mmHg 50%
    16:00 +14°C° 0 mm 4 mps 755 mmHg 53%
    17:00 +13°C° 0 mm 4 mps 755 mmHg 55%
    18:00 +13°C° 0 mm 3 mps 755 mmHg 57%
    19:00 +13°C° 0 mm 4 mps 755 mmHg 63%
    20:00 +13°C° 0 mm 4 mps 755 mmHg 68%
    21:00 +12°C° 0 mm 4 mps 755 mmHg 73%
    22:00 +12°C° 0.1 mm 4 mps 755 mmHg 77%
    23:00 +12°C° 0.1 mm 4 mps 755 mmHg 82%

    Day after tomorrow, 24 October, Thursday

    Time Temperature Precipitation Wind Pressure Humidity
    00:00 +12°C° 0.1 mm 3 mps 755 mmHg 86%
    01:00 +11°C° 0 mm 3 mps 755 mmHg 89%
    02:00 +11°C° 0 mm 3 mps 755 mmHg 92%
    03:00 +10°C° 0 mm 2 mps 755 mmHg 95%
    04:00 +10°C° 0 mm 2 mps 755 mmHg 95%
    05:00 +10°C° 0 mm 2 mps 755 mmHg 96%
    06:00 +10°C° 0 mm 2 mps 755 mmHg 96%
    07:00 +12°C° 0.1 mm 2 mps 755 mmHg 94%
    08:00 +13°C° 0.1 mm 2 mps 755 mmHg 93%
    09:00 +13°C° 0.1 mm 2 mps 755 mmHg 91%
    10:00 +14°C° 0.2 mm 2 mps 755 mmHg 88%
    11:00 +14°C° 0.2 mm 2 mps 755 mmHg 85%
    12:00 +15°C° 0.2 mm 1 mps 755 mmHg 82%
    13:00 +15°C° 0 mm 1 mps 755 mmHg 80%
    14:00 +15°C° 0 mm 1 mps 755 mmHg 78%
    15:00 +14°C° 0 mm 0 mps 755 mmHg 76%
    16:00 +15°C° 0 mm 1 mps 755 mmHg 80%
    17:00 +14°C° 0 mm 1 mps 755 mmHg 83%
    18:00 +14°C° 0 mm 2 mps 755 mmHg 86%
    19:00 +13°C° 0 mm 2 mps 755 mmHg 87%
    20:00 +13°C° 0 mm 2 mps 755 mmHg 88%
    21:00 +13°C° 0 mm 2 mps 755 mmHg 89%
    22:00 +12°C° 0 mm 2 mps 755 mmHg 90%
    23:00 +12°C° 0 mm 2 mps 755 mmHg 91%

    25 October, Friday

    Time Temperature Precipitation Wind Pressure Humidity
    00:00 +12°C° 0 mm 2 mps 756 mmHg 92%
    01:00 +12°C° 0 mm 2 mps 755 mmHg 92%
    02:00 +12°C° 0 mm 2 mps 755 mmHg 92%
    03:00 +12°C° 0 mm 2 mps 755 mmHg 92%
    04:00 +12°C° 0 mm 2 mps 755 mmHg 92%
    05:00 +12°C° 0 mm 2 mps 755 mmHg 91%
    06:00 +12°C° 0 mm 1 mps 755 mmHg 91%
    07:00 +12°C° 0 mm 1 mps 756 mmHg 88%
    08:00 +13°C° 0 mm 2 mps 756 mmHg 84%
    09:00 +14°C° 0 mm 2 mps 756 mmHg 81%
    10:00 +14°C° 0 mm 1 mps 756 mmHg 76%
    11:00 +15°C° 0 mm 1 mps 756 mmHg 72%
    12:00 +16°C° 0 mm 1 mps 756 mmHg 68%
    13:00 +16°C° 0 mm 2 mps 756 mmHg 66%
    14:00 +16°C° 0 mm 2 mps 756 mmHg 65%
    15:00 +16°C° 0 mm 2 mps 756 mmHg 63%
    16:00 +15°C° 0 mm 2 mps 756 mmHg 66%
    17:00 +14°C° 0 mm 2 mps 757 mmHg 69%
    18:00 +13°C° 0 mm 2 mps 757 mmHg 72%
    19:00 +13°C° 0 mm 1 mps 757 mmHg 74%
    20:00 +13°C° 0 mm 1 mps 757 mmHg 75%
    21:00 +12°C° 0 mm 1 mps 758 mmHg 77%
    22:00 +12°C° 0 mm 1 mps 758 mmHg 78%
    23:00 +11°C° 0 mm 0 mps 758 mmHg 79%

    26 October, Saturday

    Time Temperature Precipitation Wind Pressure Humidity
    00:00 +10°C° 0 mm 0 mps 758 mmHg 81%
    01:00 +10°C° 0 mm 0 mps 758 mmHg 80%
    02:00 +11°C° 0 mm 1 mps 758 mmHg 80%
    03:00 +11°C° 0 mm 1 mps 758 mmHg 79%
    04:00 +11°C° 0 mm 1 mps 758 mmHg 79%
    05:00 +10°C° 0 mm 1 mps 758 mmHg 79%
    06:00 +10°C° 0 mm 1 mps 758 mmHg 78%
    07:00 +11°C° 0 mm 1 mps 758 mmHg 73%
    08:00 +12°C° 0 mm 1 mps 759 mmHg 69%
    09:00 +13°C° 0 mm 1 mps 759 mmHg 64%
    10:00 +14°C° 0 mm 1 mps 759 mmHg 61%
    11:00 +16°C° 0 mm 1 mps 759 mmHg 57%
    12:00 +17°C° 0 mm 2 mps 759 mmHg 54%
    13:00 +17°C° 0 mm 2 mps 758 mmHg 52%
    14:00 +17°C° 0 mm 2 mps 758 mmHg 50%
    15:00 +17°C° 0 mm 2 mps 757 mmHg 49%
    16:00 +16°C° 0 mm 2 mps 757 mmHg 52%
    17:00 +15°C° 0 mm 2 mps 757 mmHg 55%
    18:00 +13°C° 0 mm 2 mps 758 mmHg 59%
    19:00 +13°C° 0 mm 2 mps 758 mmHg 58%
    20:00 +12°C° 0 mm 2 mps 758 mmHg 57%
    21:00 +12°C° 0 mm 2 mps 758 mmHg 56%
    22:00 +12°C° 0 mm 2 mps 757 mmHg 56%
    23:00 +10°C° 0 mm 2 mps 757 mmHg 56%

    27 October, Sunday

    Time Temperature Precipitation Wind Pressure Humidity
    00:00 +10°C° 0 mm 3 mps 757 mmHg 56%
    01:00 +9°C° 0 mm 3 mps 757 mmHg 58%
    02:00 +9°C° 0 mm 3 mps 757 mmHg 60%
    03:00 +9°C° 0 mm 3 mps 757 mmHg 61%
    04:00 +9°C° 0 mm 3 mps 757 mmHg 64%
    05:00 +8°C° 0 mm 3 mps 757 mmHg 67%
    06:00 +8°C° 0 mm 3 mps 756 mmHg 70%
    07:00 +9°C° 0 mm 3 mps 756 mmHg 68%
    08:00 +10°C° 0 mm 4 mps 756 mmHg 65%
    09:00 +12°C° 0 mm 4 mps 756 mmHg 63%
    10:00 +13°C° 0 mm 5 mps 756 mmHg 60%
    11:00 +14°C° 0 mm 6 mps 756 mmHg 57%
    12:00 +15°C° 0 mm 7 mps 756 mmHg 55%
    13:00 +15°C° 0 mm 6 mps 755 mmHg 53%
    14:00 +15°C° 0 mm 6 mps 755 mmHg 51%
    15:00 +15°C° 0 mm 6 mps 754 mmHg 49%
    16:00 +14°C° 0 mm 5 mps 754 mmHg 53%
    17:00 +13°C° 0 mm 4 mps 754 mmHg 56%
    18:00 +11°C° 0 mm 3 mps 753 mmHg 60%
    19:00 +11°C° 0 mm 4 mps 753 mmHg 61%
    20:00 +11°C° 0 mm 4 mps 753 mmHg 63%
    21:00 +10°C° 0 mm 4 mps 753 mmHg 64%
    22:00 +10°C° 0 mm 4 mps 752 mmHg 65%
    23:00 +10°C° 0 mm 4 mps 752 mmHg 66%

    28 October, Monday

    Time Temperature Precipitation Wind Pressure Humidity
    00:00 +8°C° 0 mm 4 mps 752 mmHg 67%
    01:00 +8°C° 0 mm 5 mps 751 mmHg 68%
    02:00 +8°C° 0 mm 5 mps 751 mmHg 69%
    03:00 +8°C° 0 mm 5 mps 750 mmHg 70%
    04:00 +8°C° 0 mm 5 mps 750 mmHg 71%
    05:00 +8°C° 0 mm 5 mps 749 mmHg 73%
    06:00 +7°C° 0 mm 5 mps 749 mmHg 74%
    07:00 +8°C° 0 mm 6 mps 748 mmHg 70%
    08:00 +9°C° 0 mm 7 mps 747 mmHg 66%
    09:00 +10°C° 0 mm 7 mps 747 mmHg 62%
    10:00 +11°C° 0 mm 8 mps 746 mmHg 59%
    11:00 +12°C° 0 mm 8 mps 746 mmHg 57%
    12:00 +13°C° 0 mm 8 mps 745 mmHg 55%
    13:00 +13°C° 0.1 mm 8 mps 744 mmHg 57%
    14:00 +13°C° 0.1 mm 8 mps 744 mmHg 60%
    15:00 +13°C° 0.1 mm 8 mps 743 mmHg 62%
    16:00 +12°C° 0.8 mm 8 mps 743 mmHg 68%
    17:00 +11°C° 0.8 mm 7 mps 743 mmHg 75%
    18:00 +9°C° 0.8 mm 7 mps 743 mmHg 81%
    19:00 +8°C° 0.1 mm 6 mps 744 mmHg 79%
    20:00 +7°C° 0.1 mm 5 mps 744 mmHg 77%
    21:00 +6°C° 0.1 mm 4 mps 744 mmHg 75%
    22:00 +6°C° 0 mm 4 mps 744 mmHg 74%
    23:00 +5°C° 0 mm 4 mps 745 mmHg 73%
    Show more